[Date Prev][Date Next][Thread Prev][Thread Next] - [Date Index][Thread Index][Author Index]

2 Line ISS Keps 1-1



ISS
1 25544U 98067A   05001.34745370  .00025202  00000-0  19137-3 0  4900
2 25544  51.6398  34.0323 0003669 150.0523 249.7352 15.72155569349452
----
Via the sarex mailing list at AMSAT.ORG courtesy of AMSAT-NA.
To unsubscribe, send "unsubscribe sarex" to Majordomo@amsat.org



AMSAT Top AMSAT Home